Flag for Norway Weather past 2 weeks in Langesund, Norway

Now
52 °F

Cool.


Feels Like: 51 °F
Forecast: 38 / 60 °F
Wind: 5 mph from Northeast

Location: Jomfruland Fyr

Current Time: Sep 24, 2014 at 3:35:35 AM

Latest Report: Sep 24, 2014 at 2:00 AM


Visibility: N/A

Pressure: 29.77 "Hg

Humidity: 85%

Dew point: 48 °F

Location of LangesundLocation

Historic Weather in Langesund — Graph

°F

Langesund temperature yesterday

Maximum temperature yesterday: 59 °F (at 5:00 PM)
Minimum temperature yesterday: 45 °F (at 6:00 AM)
Average temperature yesterday: 52 °F

Past Weeks' High & Low Weather Summary

 TemperatureHumidityPressure
High67 °F (Sep 14, 4:00 PM)95% (Sep 20, 2:00 AM)30.46 "Hg (Sep 20, 2:00 AM)
Low45 °F (Sep 23, 6:00 AM)33% (Sep 22, 3:00 PM)29.77 "Hg (Sep 24, 2:00 AM)
Average58 °F75%30.15 "Hg
* Reported Sep 9 2:00 AM — Sep 24 2:00 AM, Langesund, Weather by CustomWeather, © 2014

Note: Actual official high and low records may vary slightly from our data, if they occured in-between our weather recording intervals... More about our weather records

Advertising

Langesund weather history for previous 24 hours

 ConditionsComfort  
Time TempWeatherWind HumidityBarometerVisibility
2:00 AM
Sep 24
52 °FCool.5 mph85%29.77 "HgN/A
1:00 AM53 °FCool.3 mph83%29.78 "HgN/A
12:00 AM53 °FCool.2 mph83%29.80 "HgN/A
11:00 PM
Sep 23
53 °FCool.1 mph83%29.81 "HgN/A
10:00 PM54 °FCool.2 mph78%29.83 "HgN/A
9:00 PM53 °FCool.No wind81%29.85 "HgN/A
8:00 PM53 °FCool.1 mph76%29.85 "HgN/A
7:00 PM53 °FCool.1 mph73%29.86 "HgN/A
6:00 PM56 °FCool.1 mph61%29.87 "HgN/A
5:00 PM59 °FRefreshingly cool.2 mph57%29.88 "HgN/A
4:00 PM57 °FCool.2 mph67%29.90 "HgN/A
3:00 PM57 °FCool.3 mph62%29.92 "HgN/A
2:00 PM56 °FCool.7 mph68%29.94 "HgN/A
1:00 PM56 °FCool.7 mph65%29.96 "HgN/A
12:00 PM56 °FCool.8 mph60%29.97 "HgN/A
11:00 AM53 °FCool.2 mph68%29.99 "HgN/A
10:00 AM51 °FCool.1 mph71%30.00 "HgN/A
9:00 AM49 °FCool.1 mph76%30.01 "HgN/A
8:00 AM47 °FCool.2 mph78%30.01 "HgN/A
7:00 AM47 °FCool.2 mph84%30.02 "HgN/A
6:00 AM45 °FQuite cool.1 mph81%30.02 "HgN/A
5:00 AM46 °FCool.2 mph78%30.03 "HgN/A
4:00 AM47 °FCool.1 mph73%30.04 "HgN/A
3:00 AM49 °FCool.2 mph63%30.05 "HgN/A
Weather by CustomWeather, © 2014

See weather overviewHow to use our weather pages